datetime,"minimum soil temperature, 40 in depth"
2004-10-20,53.74
2004-10-21,54.38
2004-10-22,54.15
2004-10-23,53.77
2004-10-24,52.65
2004-10-25,51.77
2004-10-26,51.3
2004-10-27,
2004-10-28,
2004-10-29,
2004-10-30,
2004-10-31,
2004-11-01,
2004-11-02,
2004-11-03,
2004-11-04,48.15
2004-11-05,47.95
2004-11-06,47.74
2004-11-07,47.56
2004-11-08,47.34
2004-11-09,47.17
2004-11-10,47.0
2004-11-11,46.88
2004-11-12,46.79
2004-11-13,46.72
2004-11-14,46.67
2004-11-15,46.64
2004-11-16,46.61
2004-11-17,
2004-11-18,46.47
2004-11-19,46.41
2004-11-20,46.3
2004-11-21,46.17
2004-11-22,45.99
2004-11-23,45.77
2004-11-24,45.57
2004-11-25,45.35
2004-11-26,45.12
2004-11-27,44.92
2004-11-28,44.73
2004-11-29,44.53
2004-11-30,44.32
2004-12-01,44.14
2004-12-02,43.95
2004-12-03,43.77
2004-12-04,43.61
2004-12-05,43.44
2004-12-06,43.29
2004-12-07,43.17
2004-12-08,
2004-12-09,
2004-12-10,39.3
2004-12-11,38.52
2004-12-12,
2004-12-13,
2004-12-14,
2004-12-15,37.88
2004-12-16,38.02
2004-12-17,38.19
2004-12-18,38.35
2004-12-19,38.51
2004-12-20,38.64
2004-12-21,38.77
2004-12-22,38.88
2004-12-23,38.97
2004-12-24,39.04
2004-12-25,39.09
2004-12-26,39.12
2004-12-27,39.16
2004-12-28,39.16
2004-12-29,
2004-12-30,
2004-12-31,
2005-01-01,
2005-01-02,
2005-01-03,
2005-01-04,
2005-01-05,
2005-01-06,
2005-01-07,39.1
2005-01-08,39.08
2005-01-09,39.07
2005-01-10,
2005-01-11,
2005-01-12,
2005-01-13,
2005-01-14,38.96
2005-01-15,38.94
2005-01-16,38.9
2005-01-17,38.89
2005-01-18,38.84
2005-01-19,38.82
2005-01-20,38.79
2005-01-21,38.76
2005-01-22,38.73
2005-01-23,38.69
2005-01-24,38.64
2005-01-25,38.62
2005-01-26,38.58
2005-01-27,38.55
2005-01-28,38.55
2005-01-29,
2005-01-30,
2005-01-31,
2005-02-01,37.77
2005-02-02,37.66
2005-02-03,37.61
2005-02-04,37.55
2005-02-05,37.52
2005-02-06,37.51
2005-02-07,37.51
2005-02-08,37.52
2005-02-09,37.52
2005-02-10,37.52
2005-02-11,37.52
2005-02-12,37.52
2005-02-13,37.54
2005-02-14,37.51
2005-02-15,37.51
2005-02-16,37.5
2005-02-17,37.48
2005-02-18,37.47
2005-02-19,37.47
2005-02-20,37.47
2005-02-21,37.49
2005-02-22,37.51
2005-02-23,37.54
2005-02-24,37.56
2005-02-25,37.61
2005-02-26,37.66
2005-02-27,37.74
2005-02-28,37.79
2005-03-01,37.89
2005-03-02,37.95
2005-03-03,38.05
2005-03-04,38.11
2005-03-05,38.18
2005-03-06,38.25
2005-03-07,38.35
2005-03-08,38.47
2005-03-09,38.59
2005-03-10,38.76
2005-03-11,38.96
2005-03-12,39.16
2005-03-13,39.38
2005-03-14,39.59
2005-03-15,39.79
2005-03-16,39.98
2005-03-17,40.11
2005-03-18,40.22
2005-03-19,40.32
2005-03-20,40.4
2005-03-21,40.51
2005-03-22,40.57
2005-03-23,40.65
2005-03-24,40.65
2005-03-25,40.69
2005-03-26,40.69
2005-03-27,40.7
2005-03-28,40.71
2005-03-29,40.76
2005-03-30,40.79
2005-03-31,40.8
2005-04-01,40.83
2005-04-02,40.86
2005-04-03,40.9
2005-04-04,40.98
2005-04-05,41.06
2005-04-06,41.12
2005-04-07,41.19
2005-04-08,41.26
2005-04-09,41.41
2005-04-10,41.54
2005-04-11,41.64
2005-04-12,41.74
2005-04-13,41.85
2005-04-14,41.98
2005-04-15,42.11
2005-04-16,42.21
2005-04-17,42.31
2005-04-18,42.43
2005-04-19,42.56
2005-04-20,42.7
2005-04-21,42.76
2005-04-22,42.81
2005-04-23,42.88
2005-04-24,42.94
2005-04-25,43.07
2005-04-26,43.21
2005-04-27,43.39
2005-04-28,43.62
2005-04-29,43.85
2005-04-30,44.16
2005-05-01,44.47
2005-05-02,44.79
2005-05-03,45.1
2005-05-04,45.44
2005-05-05,45.92
2005-05-06,46.4
2005-05-07,46.8
2005-05-08,47.14
2005-05-09,47.39
2005-05-10,47.64
2005-05-11,48.25
2005-05-12,48.66
2005-05-13,48.73
2005-05-14,48.72
2005-05-15,48.76
2005-05-16,48.86
2005-05-17,49.09
2005-05-18,49.5
2005-05-19,49.81
2005-05-20,50.1
2005-05-21,50.34
2005-05-22,50.47
2005-05-23,50.51
2005-05-24,50.54
2005-05-25,50.61
2005-05-26,50.69
2005-05-27,50.79
2005-05-28,50.97
2005-05-29,51.21
2005-05-30,51.5
2005-05-31,51.7
2005-06-01,51.86
2005-06-02,52.03
2005-06-03,52.18
2005-06-04,52.25
2005-06-05,52.33
2005-06-06,52.4
2005-06-07,52.47
2005-06-08,52.49
2005-06-09,52.4
2005-06-10,52.32
2005-06-11,52.28
2005-06-12,52.3
2005-06-13,52.3
2005-06-14,52.36
2005-06-15,52.4
2005-06-16,52.52
2005-06-17,52.62
2005-06-18,52.74
2005-06-19,52.79
2005-06-20,52.75
2005-06-21,52.73
2005-06-22,52.73
2005-06-23,52.75
2005-06-24,52.82
2005-06-25,52.93
2005-06-26,53.09
2005-06-27,53.34
2005-06-28,53.6
2005-06-29,53.87
2005-06-30,53.65
2005-07-01,53.81
2005-07-02,58.75
2005-07-03,59.56
2005-07-04,60.06
2005-07-05,60.27
2005-07-06,60.3
2005-07-07,60.3
2005-07-08,60.31
2005-07-09,60.33
2005-07-10,60.39
2005-07-11,60.45
2005-07-12,60.48
2005-07-13,60.38
2005-07-14,61.35
2005-07-15,70.6
2005-07-16,72.4
2005-07-17,71.8
2005-07-18,71.2
2005-07-19,70.7
2005-07-20,70.3
2005-07-21,69.89
2005-07-22,69.55
2005-07-23,69.22
2005-07-24,68.93
2005-07-25,68.66
2005-07-26,68.4
2005-07-27,68.14
2005-07-28,67.89
2005-07-29,67.64
2005-07-30,67.37
2005-07-31,67.16
2005-08-01,65.71
2005-08-02,65.76
2005-08-03,69.16
2005-08-04,70.5
2005-08-05,70.1
2005-08-06,69.99
2005-08-07,71.5
2005-08-08,71.6
2005-08-09,71.3
2005-08-10,71.0
2005-08-11,70.7
2005-08-12,70.4
2005-08-13,70.1
2005-08-14,69.78
2005-08-15,69.46
2005-08-16,69.16
2005-08-17,68.87
2005-08-18,68.59
2005-08-19,68.32
2005-08-20,68.05
2005-08-21,67.8
2005-08-22,67.55
2005-08-23,67.29
2005-08-24,67.05
2005-08-25,66.81
2005-08-26,66.55
2005-08-27,64.6
2005-08-28,64.2
2005-08-29,64.57
2005-08-30,64.34
2005-08-31,64.23
2005-09-01,64.1
2005-09-02,63.93
2005-09-03,63.75
2005-09-04,63.57
2005-09-05,63.4
2005-09-06,63.23
2005-09-07,63.06
2005-09-08,62.89
2005-09-09,62.73
2005-09-10,62.57
2005-09-11,62.4
2005-09-12,62.19
2005-09-13,61.92
2005-09-14,61.64
2005-09-15,61.37
2005-09-16,61.13
2005-09-17,60.88
2005-09-18,60.64
2005-09-19,60.39
2005-09-20,59.35
2005-09-21,58.02
2005-09-22,56.7
2005-09-23,55.74
2005-09-24,53.61
2005-09-25,51.03
2005-09-26,50.97
2005-09-27,51.06
2005-09-28,51.35
2005-09-29,51.63
2005-09-30,51.85
2005-10-01,52.07
2005-10-02,52.24
2005-10-03,52.39
2005-10-04,52.5
2005-10-05,52.54
2005-10-06,52.49
2005-10-07,52.43
2005-10-08,52.37
2005-10-09,52.31
2005-10-10,52.27
2005-10-11,52.21
2005-10-12,52.17
2005-10-13,52.14
2005-10-14,52.12
2005-10-15,52.1
2005-10-16,52.08
2005-10-17,52.05
2005-10-18,52.01
2005-10-19,51.98
2005-10-20,51.94
2005-10-21,51.91
2005-10-22,51.87
2005-10-23,51.82
2005-10-24,51.75
2005-10-25,51.69
2005-10-26,51.62
2005-10-27,51.56
2005-10-28,51.5
2005-10-29,51.41
2005-10-30,51.32
2005-10-31,51.23
2005-11-01,51.12
2005-11-02,50.98
2005-11-03,50.89
2005-11-04,50.75
2005-11-05,50.58
2005-11-06,49.21
2005-11-07,46.02
2005-11-08,41.98
2005-11-09,39.39
2005-11-10,38.96
2005-11-11,39.01
2005-11-12,39.59
2005-11-13,40.22
2005-11-14,40.75
2005-11-15,41.17
2005-11-16,41.53
2005-11-17,41.86
2005-11-18,42.13
2005-11-19,42.36
2005-11-20,42.55
2005-11-21,42.65
2005-11-22,42.73
2005-11-23,42.8
2005-11-24,42.85
2005-11-25,42.89
2005-11-26,42.9
2005-11-27,42.92
2005-11-28,42.93
2005-11-29,42.92
2005-11-30,42.92
2005-12-01,42.52
2005-12-02,41.72
2005-12-03,41.67
2005-12-04,41.63
2005-12-05,41.61
2005-12-06,41.58
2005-12-07,41.57
2005-12-08,41.55
2005-12-09,41.52
2005-12-10,41.49
2005-12-11,41.46
2005-12-12,41.43
2005-12-13,41.39
2005-12-14,41.36
2005-12-15,41.32
2005-12-16,41.27
2005-12-17,41.21
2005-12-18,41.15
2005-12-19,40.53
2005-12-20,39.75
2005-12-21,36.55
2005-12-22,34.73
2005-12-23,34.04
2005-12-24,33.91
2005-12-25,33.91
2005-12-26,34.11
2005-12-27,34.53
2005-12-28,34.93
2005-12-29,35.41
2005-12-30,35.4
2005-12-31,34.82
2006-01-01,34.67
2006-01-02,34.54
2006-01-03,34.51
2006-01-04,34.56
2006-01-05,34.76
2006-01-06,35.02
2006-01-07,35.25
2006-01-08,35.51
2006-01-09,35.8
2006-01-10,36.1
2006-01-11,36.38
2006-01-12,36.59
2006-01-13,36.84
2006-01-14,37.05
2006-01-15,37.32
2006-01-16,37.54
2006-01-17,37.64
2006-01-18,37.76
2006-01-19,37.88
2006-01-20,37.9
2006-01-21,37.93
2006-01-22,37.94
2006-01-23,37.99
2006-01-24,37.99
2006-01-25,38.03
2006-01-26,38.03
2006-01-27,38.06
2006-01-28,38.07
2006-01-29,38.09
2006-01-30,38.11
2006-01-31,38.12
2006-02-01,38.11
2006-02-02,38.06
2006-02-03,38.02
2006-02-04,36.55
2006-02-05,33.92
2006-02-06,33.59
2006-02-07,33.6
2006-02-08,33.86
2006-02-09,34.24
2006-02-10,34.55
2006-02-11,34.83
2006-02-12,35.04
2006-02-13,35.3
2006-02-14,35.5
2006-02-15,35.72
2006-02-16,35.85
2006-02-17,36.01
2006-02-18,36.11
2006-02-19,36.22
2006-02-20,36.33
2006-02-21,36.41
2006-02-22,36.48
2006-02-23,36.52
2006-02-24,36.58
2006-02-25,36.63
2006-02-26,36.66
2006-02-27,36.7
2006-02-28,36.72
2006-03-01,36.79
2006-03-02,36.65
2006-03-03,36.53
2006-03-04,36.47
2006-03-05,36.43
2006-03-06,36.41
2006-03-07,36.39
2006-03-08,36.4
2006-03-09,36.4
2006-03-10,36.43
2006-03-11,36.45
2006-03-12,36.47
2006-03-13,36.5
2006-03-14,36.53
2006-03-15,36.55
2006-03-16,36.57
2006-03-17,36.59
2006-03-18,36.6
2006-03-19,36.63
2006-03-20,36.66
2006-03-21,36.68
2006-03-22,36.72
2006-03-23,36.74
2006-03-24,36.78
2006-03-25,36.8
2006-03-26,36.88
2006-03-27,36.96
2006-03-28,37.06
2006-03-29,37.18
2006-03-30,37.28
2006-03-31,37.4
2006-04-01,37.53
2006-04-02,37.68
2006-04-03,37.78
2006-04-04,37.88
2006-04-05,38.01
2006-04-06,38.13
2006-04-07,38.27
2006-04-08,38.41
2006-04-09,38.61
2006-04-10,38.78
2006-04-11,38.95
2006-04-12,39.12
2006-04-13,39.31
2006-04-14,39.45
2006-04-15,39.64
2006-04-16,39.81
2006-04-17,40.03
2006-04-18,40.22
2006-04-19,40.38
2006-04-20,40.51
2006-04-21,40.64
2006-04-22,40.79
2006-04-23,41.01
2006-04-24,41.26
2006-04-25,41.45
2006-04-26,41.68
2006-04-27,41.87
2006-04-28,42.12
2006-04-29,42.39
2006-04-30,42.68
2006-05-01,42.97
2006-05-02,43.31
2006-05-03,43.58
2006-05-04,43.84
2006-05-05,44.07
2006-05-06,44.29
2006-05-07,44.51
2006-05-08,44.73
2006-05-09,44.96
2006-05-10,45.18
2006-05-11,45.4
2006-05-12,45.57
2006-05-13,60.02
2006-05-14,56.49
2006-05-15,54.57
2006-05-16,53.66
2006-05-17,53.18
2006-05-18,52.88
2006-05-19,52.69
2006-05-20,52.58
2006-05-21,52.48
2006-05-22,52.38
2006-05-23,52.26
2006-05-24,52.17
2006-05-25,52.06
2006-05-26,51.95
2006-05-27,51.84
2006-05-28,51.71
2006-05-29,51.57
2006-05-30,49.71
2006-05-31,56.73
2006-06-01,56.07
2006-06-02,55.55
2006-06-03,55.3
2006-06-04,55.06
2006-06-05,54.89
2006-06-06,54.79
2006-06-07,54.75
2006-06-08,54.75
2006-06-09,54.77
2006-06-10,54.81
2006-06-11,54.85
2006-06-12,54.87
2006-06-13,54.91
2006-06-14,54.92
2006-06-15,54.93
2006-06-16,54.9
2006-06-17,54.88
2006-06-18,54.86
2006-06-19,54.85
2006-06-20,54.85
2006-06-21,54.85
2006-06-22,54.85
2006-06-23,54.85
2006-06-24,54.86
2006-06-25,76.7
2006-06-26,74.9
2006-06-27,72.3
2006-06-28,70.6
2006-06-29,69.39
2006-06-30,68.41
2006-07-01,67.56
2006-07-02,66.82
2006-07-03,65.75
2006-07-04,64.45
2006-07-05,63.92
2006-07-06,63.58
2006-07-07,63.29
2006-07-08,62.96
2006-07-09,62.64
2006-07-10,62.37
2006-07-11,62.16
2006-07-12,61.98
2006-07-13,61.91
2006-07-14,61.94
2006-07-15,75.3
2006-07-16,73.6
2006-07-17,72.8
2006-07-18,71.7
2006-07-19,70.4
2006-07-20,69.27
2006-07-21,68.23
2006-07-22,67.45
2006-07-23,69.48
2006-07-24,70.2
2006-07-25,69.98
2006-07-26,69.64
2006-07-27,69.32
2006-07-28,69.04
2006-07-29,68.8
2006-07-30,68.53
2006-07-31,68.23
2006-08-01,67.89
2006-08-02,67.52
2006-08-03,67.12
2006-08-04,66.75
2006-08-05,66.38
2006-08-06,66.06
2006-08-07,65.78
2006-08-08,65.5
2006-08-09,65.23
2006-08-10,64.94
2006-08-11,64.64
2006-08-12,64.37
2006-08-13,64.1
2006-08-14,63.82
2006-08-15,63.56
2006-08-16,63.34
2006-08-17,63.11
2006-08-18,62.89
2006-08-19,62.67
2006-08-20,62.45
2006-08-21,62.25
2006-08-22,62.09
2006-08-23,61.93
2006-08-24,61.79
2006-08-25,61.62
2006-08-26,61.44
2006-08-27,61.25
2006-08-28,61.12
2006-08-29,60.95
2006-08-30,60.76
2006-08-31,60.57
2006-09-01,60.44
2006-09-02,60.33
2006-09-03,60.2
2006-09-04,60.08
2006-09-05,60.0
2006-09-06,59.92
2006-09-07,59.84
2006-09-08,59.78
2006-09-09,59.73
2006-09-10,59.67
2006-09-11,59.59
2006-09-12,59.51
2006-09-13,59.41
2006-09-14,59.32
2006-09-15,59.23
2006-09-16,59.11
2006-09-17,58.94
2006-09-18,58.72
2006-09-19,58.49
2006-09-20,58.28
2006-09-21,58.1
2006-09-22,57.94
2006-09-23,57.78
2006-09-24,57.61
2006-09-25,57.4
2006-09-26,57.21
2006-09-27,57.01
2006-09-28,56.84
2006-09-29,56.67
2006-09-30,56.55
2006-10-01,56.42
2006-10-02,56.32
2006-10-03,56.21
2006-10-04,56.12
2006-10-05,56.02
2006-10-06,55.89
2006-10-07,55.79
2006-10-08,55.67
2006-10-09,55.53
2006-10-10,55.39
2006-10-11,55.24
2006-10-12,55.08
2006-10-13,54.89
2006-10-14,54.73
2006-10-15,54.57
2006-10-16,54.42
2006-10-17,54.28
2006-10-18,54.14
2006-10-19,53.96
2006-10-20,53.78
2006-10-21,53.64
2006-10-22,53.51
2006-10-23,53.38
2006-10-24,53.21
2006-10-25,53.05
2006-10-26,52.86
2006-10-27,52.66
2006-10-28,52.44
2006-10-29,52.21
2006-10-30,51.98
2006-10-31,51.79
2006-11-01,51.56
2006-11-02,51.33
2006-11-03,51.06
2006-11-04,50.83
2006-11-05,50.69
2006-11-06,50.57
2006-11-07,50.53
2006-11-08,50.53
2006-11-09,50.57
2006-11-10,50.62
2006-11-11,50.61
2006-11-12,50.52
2006-11-13,50.36
2006-11-14,50.22
2006-11-15,49.98
2006-11-16,49.52
2006-11-17,48.85
2006-11-18,48.21
2006-11-19,47.67
2006-11-20,47.3
2006-11-21,47.05
2006-11-22,46.89
2006-11-23,46.77
2006-11-24,46.64
2006-11-25,46.52
2006-11-26,46.38
2006-11-27,46.26
2006-11-28,46.1
2006-11-29,45.95
2006-11-30,45.79
2006-12-01,45.64
2006-12-02,45.5
2006-12-03,45.36
2006-12-04,45.22
2006-12-05,45.07
2006-12-06,44.91
2006-12-07,44.73
2006-12-08,44.57
2006-12-09,44.41
2006-12-10,44.24
2006-12-11,44.05
2006-12-12,43.87
2006-12-13,38.72
2006-12-14,38.27
2006-12-15,40.62
2006-12-16,40.59
2006-12-17,40.83
2006-12-18,41.08
2006-12-19,41.21
2006-12-20,41.23
2006-12-21,41.19
2006-12-22,41.14
2006-12-23,41.08
2006-12-24,41.0
2006-12-25,40.92
2006-12-26,40.86
2006-12-27,40.86
2006-12-28,40.73
2006-12-29,40.54
2006-12-30,40.43
2006-12-31,40.28
2007-01-01,40.21
2007-01-02,40.13
2007-01-03,40.08
2007-01-04,40.04
2007-01-05,39.96
2007-01-06,39.85
2007-01-07,39.77
2007-01-08,39.7
2007-01-09,39.66
2007-01-10,39.61
2007-01-11,39.57
2007-01-12,39.52
2007-01-13,39.49
2007-01-14,39.46
2007-01-15,39.41
2007-01-16,39.36
2007-01-17,39.31
2007-01-18,39.27
2007-01-19,39.22
2007-01-20,39.17
2007-01-21,39.11
2007-01-22,39.07
2007-01-23,39.02
2007-01-24,38.98
2007-01-25,38.94
2007-01-26,38.9
2007-01-27,38.86
2007-01-28,38.82
2007-01-29,38.8
2007-01-30,38.76
2007-01-31,38.72
2007-02-01,38.68
2007-02-02,38.66
2007-02-03,38.62
2007-02-04,38.57
2007-02-05,38.56
2007-02-06,38.5
2007-02-07,38.47
2007-02-08,38.43
2007-02-09,38.41
2007-02-10,38.37
2007-02-11,32.89
2007-02-12,33.12
2007-02-13,33.97
2007-02-14,34.95
2007-02-15,35.35
2007-02-16,35.56
2007-02-17,35.73
2007-02-18,35.89
2007-02-19,35.97
2007-02-20,36.04
2007-02-21,36.1
2007-02-22,36.16
2007-02-23,36.23
2007-02-24,36.29
2007-02-25,36.32
2007-02-26,36.35
2007-02-27,36.36
2007-02-28,36.37
2007-03-01,36.4
2007-03-02,36.4
2007-03-03,36.41
2007-03-04,36.41
2007-03-05,36.48
2007-03-06,36.44
2007-03-07,32.94
2007-03-08,32.08
2007-03-09,33.17
2007-03-10,33.14
2007-03-11,41.54
2007-03-12,38.01
2007-03-13,37.3
2007-03-14,37.3
2007-03-15,37.53
2007-03-16,37.92
2007-03-17,38.11
2007-03-18,38.16
2007-03-19,38.22
2007-03-20,38.31
2007-03-21,38.41
2007-03-22,38.53
2007-03-23,38.67
2007-03-24,38.81
2007-03-25,38.9
2007-03-26,39.06
2007-03-27,39.26
2007-03-28,39.45
2007-03-29,39.62
2007-03-30,39.72
2007-03-31,39.79
2007-04-01,39.83
2007-04-02,39.94
2007-04-03,40.07
2007-04-04,40.22
2007-04-05,40.36
2007-04-06,40.5
2007-04-07,40.71
2007-04-08,40.94
2007-04-09,41.21
2007-04-10,41.48
2007-04-11,41.72
2007-04-12,41.95
2007-04-13,42.13
2007-04-14,42.29
2007-04-15,42.41
2007-04-16,42.55
2007-04-17,42.66
2007-04-18,42.78
2007-04-19,42.88
2007-04-20,42.97
2007-04-21,43.05
2007-04-22,43.08
2007-04-23,43.12
2007-04-24,43.18
2007-04-25,43.21
2007-04-26,43.31
2007-04-27,43.44
2007-04-28,43.58
2007-04-29,43.78
2007-04-30,44.0
2007-05-01,44.24
2007-05-02,44.56
2007-05-03,44.84
2007-05-04,45.08
2007-05-05,45.26
2007-05-06,45.37
2007-05-07,45.42
2007-05-08,45.48
2007-05-09,45.56
2007-05-10,45.69
2007-05-11,45.91
2007-05-12,46.17
2007-05-13,46.45
2007-05-14,46.75
2007-05-15,47.0
2007-05-16,47.22
2007-05-17,47.44
2007-05-18,47.64
2007-05-19,47.88
2007-05-20,48.11
2007-05-21,56.47
2007-05-22,55.5
2007-05-23,54.72
2007-05-24,54.15
2007-05-25,53.76
2007-05-26,53.5
2007-05-27,53.32
2007-05-28,53.18
2007-05-29,53.09
2007-05-30,53.01
2007-05-31,52.96
2007-06-01,52.94
2007-06-02,52.95
2007-06-03,52.99
2007-06-04,53.07
2007-06-05,53.2
2007-06-06,53.31
2007-06-07,53.37
2007-06-08,53.38
2007-06-09,53.34
2007-06-10,53.29
2007-06-11,53.26
2007-06-12,53.24
2007-06-13,53.26
2007-06-14,53.27
2007-06-15,53.3
2007-06-16,53.37
2007-06-17,53.45
2007-06-18,53.57
2007-06-19,53.72
2007-06-20,53.86
2007-06-21,53.98
2007-06-22,54.09
2007-06-23,54.22
2007-06-24,54.42
2007-06-25,54.62
2007-06-26,54.76
2007-06-27,54.86
2007-06-28,54.91
2007-06-29,54.96
2007-06-30,55.02
2007-07-01,55.07
2007-07-02,55.14
2007-07-03,55.2
2007-07-04,55.28
2007-07-05,55.37
2007-07-06,55.49
2007-07-07,55.61
2007-07-08,55.8
2007-07-09,55.99
2007-07-10,56.17
2007-07-11,56.33
2007-07-12,56.5
2007-07-13,56.65
2007-07-14,56.79
2007-07-15,56.93
2007-07-16,57.03
2007-07-17,57.13
2007-07-18,57.22
2007-07-19,57.29
2007-07-20,57.32
2007-07-21,57.3
2007-07-22,57.25
2007-07-23,57.25
2007-07-24,57.25
2007-07-25,57.29
2007-07-26,57.37
2007-07-27,57.46
2007-07-28,57.58
2007-07-29,57.69
2007-07-30,57.78
2007-07-31,57.88
2007-08-01,57.97
2007-08-02,58.04
2007-08-03,58.12
2007-08-04,58.19
2007-08-05,58.26
2007-08-06,58.33
2007-08-07,58.37
2007-08-08,58.34
2007-08-09,58.31
2007-08-10,58.26
2007-08-11,58.23
2007-08-12,58.2
2007-08-13,58.15
2007-08-14,58.12
2007-08-15,58.07
2007-08-16,58.02
2007-08-17,57.96
2007-08-18,57.9
2007-08-19,57.84
2007-08-20,57.78
2007-08-21,57.7
2007-08-22,57.64
2007-08-23,57.62
2007-08-24,57.62
2007-08-25,57.62
2007-08-26,57.62
2007-08-27,57.63
2007-08-28,57.63
2007-08-29,57.64
2007-08-30,57.63
2007-08-31,57.64
2007-09-01,57.64
2007-09-02,57.67
2007-09-03,57.7
2007-09-04,57.72
2007-09-05,57.71
2007-09-06,57.67
2007-09-07,57.59
2007-09-08,57.53
2007-09-09,57.47
2007-09-10,57.42
2007-09-11,57.37
2007-09-12,57.3
2007-09-13,57.22
2007-09-14,57.15
2007-09-15,57.08
2007-09-16,57.0
2007-09-17,56.89
2007-09-18,56.78
2007-09-19,56.69
2007-09-20,56.57
2007-09-21,56.44
2007-09-22,56.27
2007-09-23,56.13
2007-09-24,56.0
2007-09-25,55.84
2007-09-26,55.68
2007-09-27,55.51
2007-09-28,55.35
2007-09-29,55.23
2007-09-30,55.07
2007-10-01,54.88
2007-10-02,54.68
2007-10-03,54.51
2007-10-04,54.35
2007-10-05,54.22
2007-10-06,54.06
2007-10-07,53.86
2007-10-08,53.67
2007-10-09,53.51
2007-10-10,53.37
2007-10-11,53.28
2007-10-12,53.18
2007-10-13,53.06
2007-10-14,52.96
2007-10-15,52.86
2007-10-16,52.76
2007-10-17,52.65
2007-10-18,52.55
2007-10-19,44.23
2007-10-20,38.85
2007-10-21,45.12
2007-10-22,46.2
2007-10-23,46.94
2007-10-24,47.24
2007-10-25,47.36
2007-10-26,47.48
2007-10-27,47.62
2007-10-28,47.78
2007-10-29,47.88
2007-10-30,47.96
2007-10-31,48.01
2007-11-01,48.04
2007-11-02,48.09
2007-11-03,48.1
2007-11-04,48.07
2007-11-05,48.0
2007-11-06,47.91
2007-11-07,47.82
2007-11-08,47.7
2007-11-09,47.59
2007-11-10,47.46
2007-11-11,47.37
2007-11-12,47.28
2007-11-13,47.21
2007-11-14,47.12
2007-11-15,47.03
2007-11-16,46.94
2007-11-17,46.88
2007-11-18,46.65
2007-11-19,46.1
2007-11-20,45.75
2007-11-21,45.76
2007-11-22,45.83
2007-11-23,45.74
2007-11-24,45.61
2007-11-25,45.47
2007-11-26,45.3
2007-11-27,45.12
2007-11-28,44.93
2007-11-29,44.73
2007-11-30,44.53
2007-12-01,44.33
2007-12-02,44.14
2007-12-03,43.96
2007-12-04,43.76
2007-12-05,43.52
2007-12-06,43.27
2007-12-07,43.01
2007-12-08,42.71
2007-12-09,42.43
2007-12-10,42.22
2007-12-11,42.05
2007-12-12,41.88
2007-12-13,41.74
2007-12-14,41.64
2007-12-15,41.52
2007-12-16,41.44
2007-12-17,41.33
2007-12-18,41.22
2007-12-19,41.12
2007-12-20,40.99
2007-12-21,40.85
2007-12-22,40.69
2007-12-23,40.56
2007-12-24,40.44
2007-12-25,40.32
2007-12-26,40.2
2007-12-27,40.11
2007-12-28,40.0
2007-12-29,39.93
2007-12-30,39.85
2007-12-31,39.78
2008-01-01,39.72
2008-01-02,39.64
2008-01-03,39.59
2008-01-04,39.55
2008-01-05,39.47
2008-01-06,39.36
2008-01-07,39.27
2008-01-08,39.17
2008-01-09,39.09
2008-01-10,39.02
2008-01-11,38.94
2008-01-12,38.89
2008-01-13,38.82
2008-01-14,38.77
2008-01-15,38.7
2008-01-16,38.65
2008-01-17,38.6
2008-01-18,38.55
2008-01-19,38.53
2008-01-20,38.49
2008-01-21,38.45
2008-01-22,38.42
2008-01-23,38.38
2008-01-24,38.35
2008-01-25,38.33
2008-01-26,38.28
2008-01-27,38.24
2008-01-28,38.19
2008-01-29,38.17
2008-01-30,38.13
2008-01-31,38.08
2008-02-01,38.05
2008-02-02,38.03
2008-02-03,37.99
2008-02-04,37.95
2008-02-05,37.93
2008-02-06,37.9
2008-02-07,37.86
2008-02-08,37.83
2008-02-09,37.77
2008-02-10,37.69
2008-02-11,37.57
2008-02-12,37.42
2008-02-13,37.17
2008-02-14,36.92
2008-02-15,36.76
2008-02-16,36.66
2008-02-17,36.61
2008-02-18,36.57
2008-02-19,36.51
2008-02-20,36.46
2008-02-21,36.4
2008-02-22,36.32
2008-02-23,36.31
2008-02-24,36.3
2008-02-25,36.31
2008-02-26,36.37
2008-02-27,36.39
2008-02-28,36.31
2008-02-29,36.08
2008-03-01,35.97
2008-03-02,35.85
2008-03-03,35.73
2008-03-04,35.7
2008-03-05,35.53
2008-03-06,35.17
2008-03-07,35.05
2008-03-08,35.04
2008-03-09,35.34
2008-03-10,37.05
2008-03-11,37.18
2008-03-12,36.52
2008-03-13,36.65
2008-03-14,37.69
2008-03-15,38.32
2008-03-16,38.28
2008-03-17,38.28
2008-03-18,38.03
2008-03-19,37.78
2008-03-20,37.48
2008-03-21,37.24
2008-03-22,37.06
2008-03-23,36.94
2008-03-24,36.84
2008-03-25,36.78
2008-03-26,36.77
2008-03-27,36.79
2008-03-28,36.85
2008-03-29,36.94
2008-03-30,37.05
2008-03-31,37.16
2008-04-01,37.27
2008-04-02,37.39
2008-04-03,37.48
2008-04-04,37.58
2008-04-05,37.63
2008-04-06,37.74
2008-04-07,37.81
2008-04-08,37.88
2008-04-09,37.99
2008-04-10,38.08
2008-04-11,38.18
2008-04-12,38.26
2008-04-13,38.4
2008-04-14,38.55
2008-04-15,38.74
2008-04-16,38.98
2008-04-17,39.22
2008-04-18,39.43
2008-04-19,39.6
2008-04-20,39.82
2008-04-21,40.08
2008-04-22,40.34
2008-04-23,40.62
2008-04-24,40.83
2008-04-25,40.95
2008-04-26,41.04
2008-04-27,41.12
2008-04-28,41.22
2008-04-29,41.35
2008-04-30,41.52
2008-05-01,41.76
2008-05-02,41.98
2008-05-03,42.15
2008-05-04,42.29
2008-05-05,42.45
2008-05-06,42.63
2008-05-07,42.84
2008-05-08,43.07
2008-05-09,43.35
2008-05-10,43.62
2008-05-11,43.86
2008-05-12,44.08
2008-05-13,44.3
2008-05-14,44.51
2008-05-15,44.7
2008-05-16,44.96
2008-05-17,45.21
2008-05-18,45.5
2008-05-19,45.81
2008-05-20,46.16
2008-05-21,46.53
2008-05-22,46.88
2008-05-23,47.17
2008-05-24,47.37
2008-05-25,47.54
2008-05-26,47.62
2008-05-27,47.65
2008-05-28,47.99
2008-05-29,49.05
2008-05-30,50.95
2008-05-31,51.49
2008-06-01,51.97
2008-06-02,52.39
2008-06-03,52.81
2008-06-04,52.81
2008-06-05,52.76
2008-06-06,52.74
2008-06-07,52.72
2008-06-08,52.71
2008-06-09,52.71
2008-06-10,52.73
2008-06-11,52.76
2008-06-12,52.81
2008-06-13,52.85
2008-06-14,52.89
2008-06-15,52.95
2008-06-16,53.03
2008-06-17,53.14
2008-06-18,53.29
2008-06-19,53.47
2008-06-20,53.62
2008-06-21,53.75
2008-06-22,53.88
2008-06-23,54.0
2008-06-24,54.08
2008-06-25,54.15
2008-06-26,54.21
2008-06-27,54.28
2008-06-28,54.37
2008-06-29,54.49
2008-06-30,54.64
2008-07-01,54.8
2008-07-02,54.99
2008-07-03,55.17
2008-07-04,55.35
2008-07-05,55.51
2008-07-06,55.67
2008-07-07,55.81
2008-07-08,55.93
2008-07-09,56.04
2008-07-10,56.14
2008-07-11,56.24
2008-07-12,56.35
2008-07-13,56.44
2008-07-14,56.51
2008-07-15,56.58
2008-07-16,56.63
2008-07-17,56.71
2008-07-18,56.79
2008-07-19,56.86
2008-07-20,56.93
2008-07-21,56.98
2008-07-22,57.01
2008-07-23,57.06
2008-07-24,57.11
2008-07-25,57.15
2008-07-26,57.16
2008-07-27,57.17
2008-07-28,57.18
2008-07-29,57.19
2008-07-30,57.2
2008-07-31,57.21
2008-08-01,57.21
2008-08-02,57.2
2008-08-03,57.19
2008-08-04,57.19
2008-08-05,57.2
2008-08-06,57.2
2008-08-07,57.21
2008-08-08,57.23
2008-08-09,57.25
2008-08-10,57.27
2008-08-11,57.29
2008-08-12,57.26
2008-08-13,57.25
2008-08-14,57.23
2008-08-15,57.23
2008-08-16,57.23
2008-08-17,57.26
2008-08-18,57.3
2008-08-19,57.36
2008-08-20,57.42
2008-08-21,57.48
2008-08-22,57.47
2008-08-23,57.43
2008-08-24,57.38
2008-08-25,57.32
2008-08-26,57.29
2008-08-27,57.25
2008-08-28,57.16
2008-08-29,57.07
2008-08-30,57.0
2008-08-31,56.94
2008-09-01,56.89
2008-09-02,56.79
2008-09-03,56.66
2008-09-04,56.5
2008-09-05,56.37
2008-09-06,56.26
2008-09-07,56.2
2008-09-08,56.13
2008-09-09,56.1
2008-09-10,56.06
2008-09-11,56.02
2008-09-12,55.98
2008-09-13,55.92
2008-09-14,55.85